Las Vegas, NM

12:47 AM MST on December 15, 2017 (GMT -0700)
Las Vegas Municipal

Weather History for KLVS - May, 2013

Change the Weather History Date:

Tuesday, May 7, 2013

  Actual Average Record
Temperature  
Mean Temperature 54 °F -  
Max Temperature 70 °F 68 °F 84 °F (1962)
Min Temperature 37 °F 37 °F 27 °F (1982)
Degree Days  
Heating Degree Days 12    
Growing Degree Days 4 (Base 50)    
Moisture  
Dew Point 31 °F    
Average Humidity 63    
Maximum Humidity 100    
Minimum Humidity 13    
Precipitation  
Precipitation 0.00 in - - ()
Sea Level Pressure  
Sea Level Pressure 29.93 in    
Wind  
Wind Speed 10 mph (South)    
Max Wind Speed 25 mph    
Max Gust Speed 36 mph    
Visibility 8 miles    
Events Fog    
Averages and records for this station are not official NWS values.
T = Trace of Precipitation, MM = Missing Value Source: NWS Daily Summary

Daily Weather History Graph

Daily Weather History Graph

Search for Another Location

Airport or City:

Trip Planner

Search our weather history database for the weather conditions in past years. The results will help you decide how hot, cold, wet, or windy it might be!

Date:

Astronomy

May. 07, 2013 Rise Set
Actual Time 6:02 AM MDT 7:52 PM MDT
Civil Twilight 5:34 AM MDT 8:20 PM MDT
Nautical Twilight 5:00 AM MDT 8:54 PM MDT
Astronomical Twilight 4:25 AM MDT 9:29 PM MDT
Moon 4:33 AM MDT (5/7) 5:58 PM MDT (5/7)
Length of Visible Light 14h 45m
Length of Day
13h 50m
Waning Crescent, 5% of the Moon is Illuminated
May 7
Waning Crescent
May 9
New
May 17
First Quarter
May 24
Full
May 31
Last Quarter

Hourly Weather History & Observations

Time (MDT) Temp. Windchill Dew Point Humidity Pressure Visibility Wind Dir Wind Speed Gust Speed Precip Events Conditions
12:53 AM 41.0 °F 33.9 °F 39.0 °F 93% 29.98 in 10.0 mi SW 12.7 mph - N/A   Mostly Cloudy
2:53 AM 39.0 °F 34.0 °F 37.0 °F 93% 29.96 in 10.0 mi South 6.9 mph - N/A   Clear
3:53 AM 37.0 °F 29.8 °F 36.0 °F 96% 29.96 in 10.0 mi South 10.4 mph - N/A   Clear
4:53 AM 39.0 °F 32.8 °F 37.9 °F 96% 29.94 in 7.0 mi South 9.2 mph - N/A   Clear
5:09 AM 39.2 °F 32.5 °F 39.2 °F 100% 30.07 in 7.0 mi South 10.4 mph - N/A   Scattered Clouds
5:21 AM 39.2 °F 35.0 °F 37.4 °F 93% 30.08 in 5.0 mi South 5.8 mph - N/A   Mostly Cloudy
5:32 AM 39.2 °F 37.0 °F 37.4 °F 93% 30.08 in 5.0 mi South 3.5 mph - N/A   Mostly Cloudy
5:53 AM 39.0 °F 32.8 °F 37.9 °F 96% 29.93 in 4.0 mi South 9.2 mph - N/A   Mostly Cloudy
6:01 AM 37.4 °F 30.8 °F 37.4 °F 100% 30.08 in 2.5 mi South 9.2 mph - N/A   Scattered Clouds
6:12 AM 37.4 °F 30.8 °F 37.4 °F 100% 30.08 in 3.0 mi SSE 9.2 mph - N/A   Partly Cloudy
6:31 AM 37.4 °F 32.1 °F 37.4 °F 100% 30.08 in 1.8 mi South 6.9 mph - N/A   Clear
6:40 AM 37.4 °F 32.1 °F 37.4 °F 100% 30.08 in 0.5 mi South 6.9 mph - N/A Fog Fog
6:53 AM 39.0 °F 34.0 °F 39.0 °F 100% 29.94 in 0.5 mi South 6.9 mph - N/A Fog Fog
6:59 AM 39.2 °F 34.2 °F 39.2 °F 100% 30.08 in 2.0 mi South 6.9 mph - N/A   Clear
7:06 AM 41.0 °F 37.1 °F 39.2 °F 93% 30.09 in 8.0 mi South 5.8 mph - N/A   Clear
7:53 AM 46.0 °F 43.9 °F 39.9 °F 79% 29.94 in 10.0 mi SW 4.6 mph - N/A   Clear
8:29 AM 44.6 °F 41.4 °F 39.2 °F 81% 30.09 in 4.0 mi NE 5.8 mph - N/A   Haze
8:37 AM 42.8 °F 41.1 °F 41.0 °F 93% 30.09 in 2.0 mi East 3.5 mph - N/A   Partly Cloudy
8:46 AM 44.6 °F 43.1 °F 42.8 °F 93% 30.09 in 10.0 mi East 3.5 mph - N/A   Partly Cloudy
8:53 AM 46.9 °F - 43.0 °F 86% 29.94 in 10.0 mi NE 3.5 mph - N/A   Partly Cloudy
9:53 AM 55.9 °F - 39.9 °F 55% 29.92 in 10.0 mi ESE 6.9 mph - N/A   Clear
10:53 AM 62.1 °F - 32.0 °F 32% 29.88 in 10.0 mi NE 9.2 mph - N/A   Clear
11:53 AM 64.0 °F - 17.1 °F 16% 29.85 in 10.0 mi Variable 4.6 mph 17.3 mph N/A   Clear
12:53 PM 68.0 °F - 24.1 °F 19% 29.81 in 10.0 mi South 19.6 mph 31.1 mph N/A   Clear
1:53 PM 68.0 °F - 19.9 °F 16% 29.80 in 10.0 mi SSW 24.2 mph 35.7 mph N/A   Clear
2:53 PM 68.0 °F - 19.9 °F 16% 29.80 in 10.0 mi SSW 17.3 mph 33.4 mph N/A   Clear
3:53 PM 70.0 °F - 21.0 °F 16% 29.78 in 10.0 mi SW 25.3 mph 31.1 mph N/A   Clear
4:00 PM 68.0 °F - 21.2 °F 17% 30.01 in 10.0 mi SW 18.4 mph 28.8 mph N/A   Clear
4:53 PM 70.0 °F - 17.1 °F 13% 29.76 in 10.0 mi SSW 20.7 mph 28.8 mph N/A   Partly Cloudy
5:53 PM 68.0 °F - 18.0 °F 15% 29.76 in 10.0 mi WSW 18.4 mph 25.3 mph N/A   Clear
6:53 PM 64.9 °F - 15.1 °F 15% 29.76 in 10.0 mi SW 12.7 mph - N/A   Clear
7:53 PM 59.0 °F - 17.1 °F 20% 29.77 in 10.0 mi SW 10.4 mph - N/A   Partly Cloudy
8:53 PM 57.0 °F - 19.0 °F 23% 29.79 in 10.0 mi WSW 8.1 mph - N/A   Mostly Cloudy
9:53 PM 55.9 °F - 25.0 °F 30% 29.80 in 10.0 mi SW 8.1 mph - N/A   Mostly Cloudy
10:53 PM 52.0 °F - 26.1 °F 37% 29.78 in 10.0 mi South 6.9 mph - N/A   Scattered Clouds
11:53 PM 51.1 °F - 25.0 °F 36% 29.76 in 10.0 mi South 5.8 mph - N/A   Scattered Clouds